• In Uzbekistan
  • List of Countries
  • For 7 days
  • Water Temperature
  • Weather Map
  • Weather Widgets
  • user-avatar
    Login

    Hourly Weather Neuquén

    Today, 22 September, Sunday

    Time Temperature Precipitation Wind Pressure Humidity
    00:00 +10°C° 0 mm 2 mps 739 mmHg 36%
    01:00 +10°C° 0 mm 2 mps 739 mmHg 36%
    02:00 +9°C° 0 mm 2 mps 739 mmHg 37%
    03:00 +9°C° 0 mm 2 mps 739 mmHg 39%
    04:00 +8°C° 0 mm 2 mps 739 mmHg 40%
    05:00 +10°C° 0 mm 3 mps 739 mmHg 37%
    06:00 +11°C° 0 mm 4 mps 740 mmHg 34%
    07:00 +12°C° 0 mm 5 mps 740 mmHg 31%
    08:00 +14°C° 0 mm 7 mps 740 mmHg 27%
    09:00 +16°C° 0 mm 8 mps 740 mmHg 24%
    10:00 +19°C° 0 mm 10 mps 739 mmHg 21%
    11:00 +21°C° 0 mm 10 mps 738 mmHg 20%
    12:00 +22°C° 0 mm 10 mps 738 mmHg 19%
    13:00 +23°C° 0 mm 10 mps 737 mmHg 18%
    14:00 +23°C° 0 mm 9 mps 736 mmHg 18%
    15:00 +23°C° 0 mm 8 mps 735 mmHg 18%
    16:00 +24°C° 0 mm 8 mps 735 mmHg 18%
    17:00 +22°C° 0 mm 6 mps 734 mmHg 21%
    18:00 +20°C° 0 mm 5 mps 734 mmHg 24%
    19:00 +18°C° 0 mm 3 mps 734 mmHg 28%
    20:00 +18°C° 0 mm 3 mps 734 mmHg 29%
    21:00 +17°C° 0 mm 3 mps 734 mmHg 30%
    22:00 +16°C° 0 mm 3 mps 734 mmHg 32%
    23:00 +15°C° 0 mm 4 mps 734 mmHg 31%

    Tomorrow, 23 September, Monday

    Time Temperature Precipitation Wind Pressure Humidity
    00:00 +14°C° 0 mm 4 mps 734 mmHg 31%
    01:00 +14°C° 0 mm 5 mps 734 mmHg 30%
    02:00 +13°C° 0 mm 4 mps 734 mmHg 32%
    03:00 +12°C° 0 mm 4 mps 734 mmHg 35%
    04:00 +12°C° 0 mm 4 mps 734 mmHg 37%
    05:00 +13°C° 0 mm 4 mps 735 mmHg 34%
    06:00 +13°C° 0 mm 4 mps 735 mmHg 32%
    07:00 +14°C° 0 mm 4 mps 736 mmHg 29%
    08:00 +18°C° 0 mm 4 mps 737 mmHg 24%
    09:00 +20°C° 0 mm 4 mps 737 mmHg 19%
    10:00 +22°C° 0 mm 4 mps 738 mmHg 15%
    11:00 +22°C° 0 mm 3 mps 738 mmHg 14%
    12:00 +24°C° 0 mm 3 mps 738 mmHg 14%
    13:00 +25°C° 0 mm 2 mps 738 mmHg 13%
    14:00 +25°C° 0 mm 2 mps 738 mmHg 13%
    15:00 +25°C° 0 mm 2 mps 738 mmHg 13%
    16:00 +25°C° 0 mm 2 mps 737 mmHg 13%
    17:00 +23°C° 0 mm 2 mps 738 mmHg 15%
    18:00 +20°C° 0 mm 2 mps 738 mmHg 18%
    19:00 +18°C° 0 mm 2 mps 739 mmHg 20%
    20:00 +19°C° 0 mm 1 mps 739 mmHg 22%
    21:00 +18°C° 0 mm 1 mps 739 mmHg 23%
    22:00 +15°C° 0 mm 0 mps 739 mmHg 25%
    23:00 +16°C° 0 mm 1 mps 739 mmHg 25%

    Day after tomorrow, 24 September, Tuesday

    Time Temperature Precipitation Wind Pressure Humidity
    00:00 +15°C° 0 mm 1 mps 740 mmHg 25%
    01:00 +15°C° 0 mm 1 mps 740 mmHg 25%
    02:00 +14°C° 0 mm 1 mps 740 mmHg 26%
    03:00 +14°C° 0 mm 1 mps 740 mmHg 27%
    04:00 +13°C° 0 mm 1 mps 739 mmHg 28%
    05:00 +15°C° 0 mm 1 mps 740 mmHg 25%
    06:00 +18°C° 0 mm 1 mps 740 mmHg 23%
    07:00 +20°C° 0 mm 1 mps 741 mmHg 20%
    08:00 +22°C° 0 mm 1 mps 741 mmHg 18%
    09:00 +23°C° 0 mm 1 mps 740 mmHg 16%
    10:00 +25°C° 0 mm 1 mps 740 mmHg 14%
    11:00 +26°C° 0 mm 1 mps 740 mmHg 14%
    12:00 +27°C° 0 mm 1 mps 739 mmHg 13%
    13:00 +28°C° 0 mm 2 mps 739 mmHg 12%
    14:00 +28°C° 0 mm 1 mps 738 mmHg 12%
    15:00 +28°C° 0 mm 1 mps 738 mmHg 12%
    16:00 +29°C° 0 mm 1 mps 738 mmHg 11%
    17:00 +27°C° 0 mm 1 mps 738 mmHg 13%
    18:00 +25°C° 0 mm 1 mps 738 mmHg 16%
    19:00 +23°C° 0 mm 2 mps 738 mmHg 18%
    20:00 +21°C° 0 mm 2 mps 738 mmHg 19%
    21:00 +20°C° 0 mm 2 mps 738 mmHg 20%
    22:00 +19°C° 0 mm 2 mps 738 mmHg 22%
    23:00 +19°C° 0 mm 2 mps 738 mmHg 22%

    25 September, Wednesday

    Time Temperature Precipitation Wind Pressure Humidity
    00:00 +19°C° 0 mm 2 mps 738 mmHg 23%
    01:00 +18°C° 0 mm 2 mps 738 mmHg 24%
    02:00 +17°C° 0 mm 3 mps 738 mmHg 28%
    03:00 +17°C° 0 mm 4 mps 738 mmHg 31%
    04:00 +15°C° 0 mm 5 mps 738 mmHg 35%
    05:00 +16°C° 0 mm 5 mps 738 mmHg 36%
    06:00 +16°C° 0 mm 5 mps 738 mmHg 36%
    07:00 +17°C° 0 mm 5 mps 738 mmHg 36%
    08:00 +21°C° 0 mm 5 mps 738 mmHg 30%
    09:00 +23°C° 0 mm 6 mps 738 mmHg 25%
    10:00 +26°C° 0 mm 6 mps 738 mmHg 19%
    11:00 +28°C° 0 mm 6 mps 737 mmHg 17%
    12:00 +30°C° 0 mm 6 mps 737 mmHg 15%
    13:00 +32°C° 0 mm 6 mps 736 mmHg 12%
    14:00 +32°C° 0 mm 6 mps 735 mmHg 12%
    15:00 +32°C° 0 mm 6 mps 735 mmHg 12%
    16:00 +33°C° 0 mm 6 mps 734 mmHg 12%
    17:00 +30°C° 0 mm 6 mps 734 mmHg 15%
    18:00 +28°C° 0 mm 5 mps 734 mmHg 17%
    19:00 +26°C° 0 mm 5 mps 734 mmHg 19%
    20:00 +25°C° 0 mm 5 mps 734 mmHg 20%
    21:00 +23°C° 0 mm 5 mps 734 mmHg 20%
    22:00 +22°C° 0 mm 5 mps 733 mmHg 21%
    23:00 +22°C° 0 mm 5 mps 733 mmHg 22%

    26 September, Thursday

    Time Temperature Precipitation Wind Pressure Humidity
    00:00 +21°C° 0 mm 5 mps 733 mmHg 24%
    01:00 +20°C° 0 mm 5 mps 733 mmHg 25%
    02:00 +20°C° 0 mm 5 mps 733 mmHg 27%
    03:00 +19°C° 0 mm 5 mps 733 mmHg 29%
    04:00 +19°C° 0 mm 5 mps 733 mmHg 31%
    05:00 +19°C° 0 mm 5 mps 733 mmHg 32%
    06:00 +20°C° 0 mm 5 mps 733 mmHg 32%
    07:00 +20°C° 0 mm 6 mps 733 mmHg 33%
    08:00 +22°C° 0 mm 6 mps 733 mmHg 29%
    09:00 +24°C° 0 mm 6 mps 733 mmHg 25%
    10:00 +28°C° 0 mm 6 mps 733 mmHg 22%
    11:00 +30°C° 0 mm 7 mps 733 mmHg 19%
    12:00 +33°C° 0 mm 9 mps 732 mmHg 16%
    13:00 +34°C° 0 mm 10 mps 731 mmHg 13%
    14:00 +34°C° 0 mm 10 mps 730 mmHg 13%
    15:00 +34°C° 0 mm 10 mps 730 mmHg 13%
    16:00 +34°C° 0 mm 10 mps 729 mmHg 13%
    17:00 +32°C° 0 mm 9 mps 729 mmHg 14%
    18:00 +31°C° 0 mm 9 mps 729 mmHg 16%
    19:00 +28°C° 0 mm 8 mps 729 mmHg 17%
    20:00 +27°C° 0 mm 9 mps 728 mmHg 20%
    21:00 +26°C° 0 mm 9 mps 728 mmHg 22%
    22:00 +26°C° 0 mm 10 mps 728 mmHg 25%
    23:00 +24°C° 0 mm 9 mps 727 mmHg 28%

    27 September, Friday

    Time Temperature Precipitation Wind Pressure Humidity
    00:00 +23°C° 0 mm 8 mps 727 mmHg 30%
    01:00 +22°C° 0 mm 7 mps 727 mmHg 33%
    02:00 +21°C° 0 mm 7 mps 727 mmHg 33%
    03:00 +21°C° 0 mm 8 mps 728 mmHg 34%
    04:00 +21°C° 0 mm 9 mps 728 mmHg 34%
    05:00 +21°C° 0 mm 9 mps 728 mmHg 33%
    06:00 +21°C° 0 mm 10 mps 729 mmHg 31%
    07:00 +21°C° 0 mm 11 mps 730 mmHg 29%
    08:00 +21°C° 0 mm 11 mps 730 mmHg 28%
    09:00 +22°C° 0 mm 11 mps 730 mmHg 27%
    10:00 +22°C° 0 mm 11 mps 730 mmHg 26%
    11:00 +23°C° 0 mm 10 mps 730 mmHg 23%
    12:00 +26°C° 0 mm 10 mps 730 mmHg 19%
    13:00 +27°C° 0 mm 9 mps 730 mmHg 15%
    14:00 +27°C° 0 mm 10 mps 730 mmHg 15%
    15:00 +26°C° 0 mm 11 mps 730 mmHg 15%
    16:00 +26°C° 0 mm 11 mps 730 mmHg 15%
    17:00 +23°C° 0 mm 11 mps 730 mmHg 18%
    18:00 +22°C° 0 mm 10 mps 730 mmHg 20%
    19:00 +19°C° 0 mm 9 mps 731 mmHg 23%
    20:00 +18°C° 0 mm 9 mps 731 mmHg 25%
    21:00 +18°C° 0 mm 8 mps 731 mmHg 28%
    22:00 +17°C° 0 mm 7 mps 731 mmHg 30%
    23:00 +16°C° 0 mm 7 mps 732 mmHg 33%
    Show more